Weather History for KMFI - November, 2014

Change the Weather History Date:

Friday, November 7, 2014

  Actual Average Record
Temperature  
Mean Temperature 34 °F -  
Max Temperature 39 °F 45 °F 68 °F (1949)
Min Temperature 28 °F 26 °F -7 °F (1991)
Degree Days  
Heating Degree Days 32    
Moisture  
Dew Point 28 °F    
Average Humidity 76    
Maximum Humidity 89    
Minimum Humidity 57    
Precipitation  
Precipitation 0.00 in - - ()
Sea Level Pressure  
Sea Level Pressure 29.94 in    
Wind  
Wind Speed 9 mph (SSW)    
Max Wind Speed 16 mph    
Max Gust Speed 24 mph    
Visibility 9 miles    
Events Rain , Snow    
Averages and records for this station are not official NWS values.
T = Trace of Precipitation, MM = Missing Value Source: NWS Daily Summary

Daily Weather History Graph

Daily Weather History Graph

Search for Another Location

Airport or City:

Trip Planner

Search our weather history database for the weather conditions in past years. The results will help you decide how hot, cold, wet, or windy it might be!

Date:

Astronomy

Nov. 07, 2014 Rise Set
Actual Time 6:46 AM CST 4:41 PM CST
Civil Twilight 6:15 AM CST 5:12 PM CST
Nautical Twilight 5:40 AM CST 5:47 PM CST
Astronomical Twilight 5:06 AM CST 6:21 PM CST
Moon 5:33 PM CST (11/7) 7:22 AM CST (11/7)
Length of Visible Light 10h 56m
Length of Day
9h 55m
Full, 99% of the Moon is Illuminated
Nov 7
Full
Nov 14
Last Quarter
Nov 22
New
Nov 29
First Quarter
Dec 6
Full

Hourly Weather History & Observations

Time (CST) Temp. Windchill Dew Point Humidity Pressure Visibility Wind Dir Wind Speed Gust Speed Precip Events Conditions
12:54 AM 34.0 °F 27.2 °F 28.0 °F 79% 30.22 in 10.0 mi WNW 8.1 mph - N/A   Overcast
1:54 AM 34.0 °F 27.2 °F 28.0 °F 79% 30.22 in 10.0 mi West 8.1 mph - N/A   Overcast
2:54 AM 33.1 °F 28.7 °F 27.0 °F 78% 30.19 in 10.0 mi West 4.6 mph - N/A   Overcast
3:54 AM 32.0 °F 27.5 °F 28.0 °F 85% 30.18 in 10.0 mi West 4.6 mph - N/A   Overcast
4:54 AM 30.0 °F 25.2 °F 27.0 °F 88% 30.17 in 10.0 mi WSW 4.6 mph - N/A   Overcast
5:54 AM 28.9 °F 23.9 °F 26.1 °F 89% 30.16 in 10.0 mi SW 4.6 mph - N/A   Clear
6:54 AM 28.0 °F 24.2 °F 25.0 °F 88% 30.14 in 10.0 mi South 3.5 mph - N/A   Clear
7:54 AM 30.9 °F 25.2 °F 28.0 °F 89% 30.12 in 10.0 mi SSW 5.8 mph - N/A   Partly Cloudy
8:54 AM 34.0 °F 28.0 °F 27.0 °F 75% 30.12 in 10.0 mi SSW 6.9 mph - N/A   Scattered Clouds
9:54 AM 37.9 °F 32.7 °F 27.0 °F 65% 30.09 in 10.0 mi South 6.9 mph - N/A   Overcast
10:54 AM 37.9 °F 30.9 °F 25.0 °F 60% 30.06 in 10.0 mi South 10.4 mph - N/A   Overcast
11:54 AM 39.0 °F 31.4 °F 25.0 °F 57% 30.02 in 10.0 mi South 12.7 mph - N/A   Overcast
12:54 PM 39.0 °F 31.8 °F 25.0 °F 57% 29.98 in 10.0 mi South 11.5 mph - N/A   Overcast
1:54 PM 39.9 °F 32.9 °F 26.1 °F 58% 29.93 in 10.0 mi South 11.5 mph - N/A   Overcast
2:54 PM 39.0 °F 31.0 °F 26.1 °F 60% 29.91 in 10.0 mi South 13.8 mph - N/A   Overcast
3:40 PM 37.9 °F 32.1 °F 28.0 °F 68% 29.85 in 6.0 mi South 8.1 mph 18.4 mph 0.00 in Snow Light Snow
3:50 PM 37.4 °F 28.2 °F 28.4 °F 70% 29.82 in 7.0 mi SSE 16.1 mph - 0.00 in Snow Light Snow
3:54 PM 37.9 °F 29.6 °F 28.0 °F 68% 29.86 in 7.0 mi SSE 13.8 mph - 0.00 in Snow Light Snow
4:54 PM 37.0 °F 28.1 °F 28.9 °F 73% 29.82 in 10.0 mi South 15.0 mph 24.2 mph 0.00 in   Mostly Cloudy
5:54 PM 37.0 °F 29.3 °F 28.9 °F 73% 29.84 in 10.0 mi South 11.5 mph - N/A   Overcast
6:54 PM 37.9 °F 30.5 °F 28.9 °F 70% 29.82 in 10.0 mi South 11.5 mph - N/A   Overcast
7:54 PM 37.9 °F 29.2 °F 28.0 °F 68% 29.79 in 10.0 mi South 15.0 mph - N/A   Overcast
8:20 PM 36.0 °F 27.1 °F 30.0 °F 79% 29.74 in 2.5 mi South 13.8 mph 23.0 mph 0.00 in Snow Light Snow
8:35 PM 35.1 °F 27.4 °F 30.9 °F 85% 29.72 in 6.0 mi South 10.4 mph - 0.00 in Snow Light Snow
8:47 PM 35.1 °F 26.9 °F 30.9 °F 85% 29.72 in 9.0 mi South 11.5 mph - 0.00 in   Overcast
8:54 PM 35.1 °F 26.9 °F 30.9 °F 85% 29.76 in 10.0 mi South 11.5 mph - 0.00 in   Overcast
9:54 PM 35.1 °F 27.9 °F 32.0 °F 89% 29.73 in 10.0 mi South 9.2 mph - 0.00 in Rain Light Rain
10:54 PM 36.0 °F 29.0 °F 32.0 °F 86% 29.70 in 10.0 mi South 9.2 mph - 0.00 in   Overcast
11:54 PM 37.0 °F 30.4 °F 33.1 °F 86% 29.68 in 10.0 mi SSW 9.2 mph - N/A   Overcast